Wind_Speed
62 61 57 54 55 57 57 54 52 51 47 45 44 43 38 34 31 29 26 23 22 20 21 22 22 23 25 27 28 28 28 25 20 22 27 23 22 23 20 17 15 14 12 11 9 6 6 6 7 7 6 5 6 8 9 10 10 12 14 15 18 19 19 19 20 21 24 26 27 25 22 19 16 13 12 12 13 16 17 17 17 18 19 18 18 19
64 61 59 60 61 61 59 56 55 52 49 48 47 45 42 37 33 30 28 25 23 22 22 23 23 24 26 28 29 29 28 26 25 27 27 23 24 25 21 18 16 15 13 11 9 7 7 7 7 7 7 6 6 8 9 9 10 12 14 16 18 20 20 20 20 22 24 26 26 26 23 21 17 13 10 10 11 14 15 15 16 16 17 17 17 17
65 62 63 65 66 64 61 59 57 54 52 51 50 48 45 40 35 32 30 28 26 24 24 25 25 26 27 28 28 29 29 27 27 31 30 27 27 26 22 19 16 15 14 11 10 8 7 8 8 8 8 7 7 9 11 11 11 13 15 16 19 22 21 20 21 21 23 24 25 24 23 21 18 14 11 10 11 12 13 14 14 15 16 16 16 16
67 66 67 69 69 67 64 62 60 58 55 54 53 51 48 45 39 35 34 33 30 29 28 27 26 26 25 26 28 29 29 25 28 35 36 33 31 29 25 21 18 17 15 12 11 9 8 9 10 10 10 8 7 9 11 11 10 12 14 17 20 22 22 21 21 20 21 22 23 22 21 19 17 14 12 11 11 12 12 13 13 13 14 15 15 15
70 71 71 71 71 69 67 64 63 61 58 58 57 54 51 48 44 40 39 35 33 31 29 27 26 25 24 25 28 31 31 30 33 35 33 32 32 31 27 22 20 18 15 12 11 10 9 10 11 11 12 11 9 8 11 11 10 11 13 16 19 22 23 22 20 19 19 20 20 20 19 18 16 14 12 11 11 11 11 12 12 12 12 14 14 14
72 73 73 72 72 71 69 67 65 64 62 61 59 57 55 52 48 44 40 38 36 34 32 30 28 26 26 26 27 29 32 36 37 34 33 34 33 30 25 21 20 18 15 13 11 11 11 10 10 11 12 12 10 9 11 12 12 12 13 15 18 21 23 22 20 19 18 18 18 18 17 17 15 14 13 12 11 11 11 11 11 11 11 11 12 12
73 75 74 74 73 73 72 70 69 68 66 63 62 61 59 55 52 46 41 41 40 38 36 33 30 29 28 27 26 26 31 38 39 38 39 37 32 28 25 23 22 20 17 14 11 11 11 10 10 12 13 14 13 11 11 13 14 14 13 14 17 20 23 23 20 19 18 17 18 18 18 18 17 16 14 13 12 11 11 11 11 10 10 10 10 10
76 76 75 74 75 75 74 73 72 72 70 66 65 65 62 59 55 49 45 45 43 41 39 35 33 31 28 27 26 25 29 36 39 39 39 36 31 27 25 24 23 20 17 14 12 12 12 12 12 11 14 16 16 14 12 13 15 15 13 13 15 18 21 23 22 20 18 18 18 19 19 19 18 16 14 13 12 12 11 11 11 10 9 9 8 8
80 79 78 77 77 76 75 75 76 76 72 69 69 68 65 62 58 54 50 47 47 44 40 37 35 32 30 30 28 26 30 35 37 37 35 34 31 29 28 25 22 21 19 17 15 14 14 13 13 12 12 15 16 16 14 13 15 15 14 14 15 16 19 22 24 22 20 20 20 20 19 18 17 16 15 14 13 12 12 11 10 9 8 8 7 7
85 84 82 79 78 77 77 78 80 78 74 73 74 71 68 65 62 60 55 51 50 46 41 40 37 34 34 34 31 29 32 36 36 35 34 33 32 31 30 26 23 23 21 19 17 16 15 14 13 13 11 13 16 17 16 15 16 16 15 15 14 15 18 21 24 25 24 23 22 21 20 19 17 16 15 14 13 13 12 11 10 9 8 7 7 6
89 88 86 82 79 78 79 80 81 78 75 75 76 73 71 69 67 65 59 55 52 47 44 44 40 38 38 36 33 32 34 36 36 34 33 32 33 33 31 28 27 27 24 21 19 17 15 14 14 14 12 12 15 17 17 17 16 16 16 16 15 15 17 20 24 26 27 26 24 23 21 19 18 16 16 15 14 13 12 11 10 9 8 8 7 6
92 91 88 87 84 83 82 82 81 78 76 76 77 75 74 73 72 68 63 58 52 48 48 47 44 43 41 38 36 36 37 38 35 33 32 32 32 33 33 31 30 28 26 23 21 19 16 14 15 15 14 12 13 15 16 15 16 16 15 16 17 17 17 20 23 26 28 28 26 24 22 21 19 18 16 15 14 14 13 12 11 11 9 8 8 7
93 90 90 91 90 88 86 85 83 80 78 78 79 78 75 76 75 72 66 60 53 51 52 51 48 46 44 43 41 40 39 38 36 34 33 32 31 32 32 30 28 26 24 24 23 20 18 17 17 16 15 14 13 15 15 15 15 14 14 15 16 18 18 19 22 25 27 27 27 25 23 22 20 19 18 17 16 15 14 13 12 12 10 9 8 7
91 91 92 93 93 91 90 88 86 83 80 80 81 80 77 78 78 74 69 64 58 56 57 56 54 50 48 48 46 43 42 40 39 37 35 33 33 32 32 30 28 26 25 26 25 23 21 21 19 18 17 15 15 14 16 18 17 16 15 14 14 17 19 19 20 22 24 25 25 25 24 23 22 20 20 19 19 18 16 15 14 13 12 10 9 8
93 94 95 95 95 94 93 92 90 86 84 84 84 83 80 80 80 77 73 69 64 62 61 61 57 53 51 52 50 47 46 44 42 40 38 37 35 34 34 31 29 29 28 27 27 27 27 24 21 20 18 17 16 15 15 17 19 19 18 16 15 16 18 19 19 20 20 21 22 23 24 24 24 23 22 21 21 20 19 17 16 15 13 12 11 10
95 96 97 96 94 94 93 93 93 91 90 88 87 85 82 80 80 80 76 73 70 67 66 64 60 57 56 56 54 51 49 47 45 43 42 40 38 37 37 35 33 31 30 30 31 30 28 26 24 22 20 19 18 16 14 14 17 19 19 18 17 17 17 17 18 18 17 17 18 20 22 24 25 25 24 23 22 21 20 19 18 17 15 14 14 13
98 99 100 96 93 92 92 92 95 97 95 92 89 87 83 80 80 81 79 76 74 71 68 66 64 62 60 59 57 54 53 52 49 49 47 43 40 40 39 38 35 34 34 34 35 33 29 27 26 24 22 21 19 17 15 13 14 17 19 19 18 18 17 18 18 18 17 17 17 17 20 23 25 26 25 24 22 21 19 19 18 18 17 16 15 15
101 103 102 96 92 93 93 95 98 100 98 95 92 90 86 82 83 83 81 80 77 74 71 69 67 65 62 61 60 58 57 57 55 54 51 46 44 43 41 39 38 38 37 36 36 33 29 28 28 26 24 23 21 18 16 15 15 16 19 20 20 19 19 19 18 18 18 18 18 17 18 21 24 25 26 25 24 22 21 20 19 19 17 17 16 16
103 105 104 98 95 96 97 98 99 100 100 98 96 95 90 86 85 86 83 81 78 76 76 74 70 67 65 62 63 63 62 61 59 57 53 49 47 45 42 42 41 40 39 37 35 32 30 29 29 28 26 24 22 20 19 18 17 17 18 20 22 22 21 19 17 17 18 19 19 19 19 20 22 24 25 26 27 26 25 23 22 20 18 18 18 17
105 107 106 102 100 100 100 101 99 98 100 100 100 98 94 89 88 88 85 81 80 79 79 77 72 69 68 66 66 67 65 64 63 61 56 52 49 47 45 44 43 41 40 38 35 34 34 34 32 30 27 25 23 21 20 20 18 18 18 19 20 21 22 21 20 19 19 20 22 22 22 22 22 23 24 26 28 28 27 26 24 23 21 20 19 18
106 108 107 105 105 104 103 103 100 97 99 102 102 100 98 94 91 89 86 82 81 81 81 79 73 70 70 70 69 70 69 67 66 64 61 57 54 51 48 46 45 43 41 39 37 36 36 36 35 33 29 26 24 22 22 22 20 20 19 19 19 20 22 23 23 23 22 22 23 24 25 25 24 23 23 24 26 28 28 28 27 26 24 23 21 20
106 107 106 107 107 106 105 104 102 98 99 102 103 102 100 97 93 90 87 83 81 81 82 82 77 73 75 74 71 72 73 71 70 68 65 61 57 54 51 48 47 45 43 41 38 37 37 38 38 38 33 28 26 25 25 24 22 21 20 19 18 19 21 22 23 24 24 24 24 24 25 26 26 26 25 24 25 26 27 29 29 28 27 25 24 22
104 104 106 107 109 108 107 107 105 102 101 104 106 105 103 102 99 95 91 85 82 82 83 84 82 80 79 75 71 73 76 74 72 71 67 63 59 56 54 52 50 48 46 44 42 39 39 40 39 38 35 30 28 28 27 25 24 22 20 19 19 19 20 21 21 22 24 24 24 24 24 25 26 27 27 27 26 26 26 27 28 28 28 26 25 25
101 102 105 108 110 111 110 109 107 105 105 105 105 106 105 104 102 99 95 91 88 86 86 86 85 83 81 76 73 75 78 77 75 73 69 65 62 59 57 55 53 51 49 48 46 43 42 40 38 37 36 33 31 31 29 27 26 24 22 21 21 20 20 20 20 21 23 24 25 24 24 24 26 27 28 28 28 27 26 26 26 27 28 27 27 26
97 100 104 107 110 111 110 109 108 107 108 106 103 104 104 103 102 101 98 96 93 90 88 88 86 84 82 77 75 75 77 79 79 75 71 68 65 63 61 58 56 54 53 51 49 47 45 43 39 37 38 37 35 33 31 30 29 26 25 24 22 20 20 21 21 21 22 23 24 24 24 25 25 26 27 29 29 29 28 27 27 27 27 27 27 27
95 99 103 106 109 111 110 110 109 111 113 111 107 105 105 104 103 102 101 98 94 90 88 88 86 85 83 79 76 74 76 82 84 80 75 72 69 65 62 59 57 56 55 54 52 50 47 45 41 38 39 40 37 34 33 32 31 29 27 26 23 21 21 22 22 22 22 22 23 25 26 26 26 27 28 28 28 29 29 29 29 28 27 26 27 27
94 98 102 105 107 109 110 110 111 113 115 114 110 109 109 109 106 105 104 100 94 91 89 89 87 88 87 84 79 77 79 86 90 83 76 73 69 64 60 59 58 58 57 55 53 51 47 45 42 40 41 41 38 36 35 34 32 30 29 27 24 23 23 23 23 23 23 22 23 24 26 27 28 28 29 28 27 27 28 30 30 30 29 28 28 28
92 96 100 103 105 108 110 111 113 115 116 115 113 112 112 111 109 109 107 102 98 95 93 90 89 89 88 86 83 81 84 90 90 83 76 74 72 67 64 63 63 63 63 60 57 54 49 47 46 45 45 43 41 38 37 35 34 32 29 27 25 24 24 24 25 25 24 23 24 24 26 27 28 29 29 28 27 27 27 29 30 31 30 30 29 29
90 93 97 101 103 106 110 113 115 116 117 116 115 114 112 110 109 109 108 105 103 100 96 92 91 90 89 87 84 82 88 92 89 83 79 76 73 70 67 67 67 66 65 61 56 53 50 49 48 48 46 44 42 40 39 38 36 34 31 29 28 27 27 26 26 26 26 25 26 26 25 26 27 28 29 29 28 28 28 29 30 30 31 31 31 30
87 90 95 99 101 105 109 113 114 116 117 117 116 114 112 111 110 109 108 107 105 103 99 95 93 92 90 89 86 84 89 92 88 84 81 77 73 71 68 68 68 67 62 58 55 52 51 50 49 48 47 45 43 42 41 40 38 36 34 32 31 30 29 28 28 27 27 27 27 26 25 24 25 26 28 29 29 30 29 30 30 30 31 32 32 31
85 88 93 97 99 103 107 111 113 114 116 117 116 114 113 113 112 111 110 108 104 101 100 99 96 94 92 90 89 88 90 92 88 85 82 78 76 72 69 68 69 66 62 59 56 54 52 52 51 50 49 47 46 45 44 43 41 39 37 35 34 33 31 30 30 29 29 28 28 27 25 25 25 25 27 28 30 30 30 30 30 30 31 32 32 32
83 86 91 95 97 100 105 109 112 113 115 117 116 115 115 115 114 113 111 107 103 101 101 101 99 97 95 93 92 93 93 90 88 86 82 79 78 75 70 68 68 66 62 59 57 55 54 54 53 53 52 50 49 48 47 45 43 41 39 37 36 35 34 33 33 32 31 29 29 28 26 26 25 25 26 28 30 31 31 31 31 31 31 32 32 33
79 83 88 92 94 97 103 108 111 113 115 116 116 115 115 116 115 113 110 106 104 104 104 104 102 100 98 96 95 96 92 82 80 85 85 82 80 78 74 70 67 64 62 59 58 57 56 55 55 55 54 53 52 50 49 48 45 43 42 40 39 38 37 36 35 33 32 30 30 29 28 27 27 26 26 28 30 31 31 32 33 34 34 33 33 33
75 80 85 89 91 95 101 106 109 112 113 113 115 116 116 116 115 114 111 106 105 107 106 105 103 100 97 94 94 97 93 82 74 78 84 84 80 78 77 73 69 66 64 62 60 58 57 57 58 58 57 56 54 53 52 50 47 45 43 41 39 38 37 37 35 34 33 32 32 31 30 29 28 28 28 29 30 31 32 34 35 36 36 35 34 35
70 76 82 86 88 93 99 105 109 111 110 111 115 118 117 115 115 114 112 109 109 109 108 106 105 101 96 94 94 95 96 92 84 77 78 82 81 79 78 76 71 68 67 65 62 61 60 60 59 59 59 58 57 55 54 51 49 46 44 42 41 39 39 38 37 36 35 34 34 33 31 31 31 30 30 30 31 31 33 35 36 37 37 37 37 37
65 73 78 82 85 91 98 103 107 108 108 110 115 117 115 115 115 115 114 113 111 109 107 107 108 105 100 98 98 97 98 98 94 86 80 80 79 79 81 80 75 70 68 67 64 63 62 61 60 60 61 60 59 57 54 53 51 48 45 44 43 41 40 39 38 38 37 36 36 35 34 33 33 33 32 32 32 33 34 35 37 38 38 38 38 38
62 69 75 78 82 88 94 99 103 106 107 109 113 114 114 114 114 114 114 112 109 107 107 107 107 106 104 101 100 101 102 101 98 94 88 83 78 76 77 80 78 73 69 68 67 66 64 62 61 62 62 62 60 58 56 55 52 49 47 45 44 42 41 40 40 40 39 39 38 37 36 36 36 35 35 34 34 35 36 36 37 38 38 39 39 40
60 66 71 75 78 84 91 97 100 102 104 107 110 112 112 112 112 112 113 113 111 108 107 107 107 107 107 104 100 101 104 104 100 96 93 89 84 78 75 77 79 76 72 69 68 67 67 65 63 65 65 63 61 59 57 55 52 50 48 47 45 44 43 42 43 42 42 41 40 39 39 39 38 37 37 36 36 36 37 37 38 38 38 39 39 40
58 63 68 72 76 82 88 93 96 99 102 106 109 111 111 111 112 113 114 115 115 112 108 107 108 109 109 105 102 103 106 106 101 96 94 93 90 86 80 76 75 75 73 71 69 67 67 66 67 68 67 65 62 60 58 55 52 51 50 48 47 46 45 45 45 45 45 44 43 42 41 41 40 39 38 38 38 37 37 38 38 38 38 39 39 41
57 62 66 70 74 80 85 88 91 95 99 104 108 111 112 112 113 115 116 117 116 113 110 109 109 110 110 108 105 105 107 106 100 96 96 94 91 90 87 81 77 76 74 72 70 68 68 68 69 70 69 67 64 62 59 56 54 53 52 50 49 48 48 48 48 48 47 46 44 43 43 43 42 41 39 39 39 38 38 38 38 39 39 39 40 41
56 60 64 67 72 77 81 83 86 91 96 102 108 111 112 113 114 116 117 117 117 114 111 110 110 111 111 110 108 107 107 104 99 97 98 96 92 90 88 84 82 79 76 74 72 70 70 70 71 71 70 68 65 62 59 56 55 55 54 52 51 51 51 51 50 49 48 48 47 46 46 45 43 42 40 40 39 39 39 39 39 39 40 40 40 41
53 57 60 65 70 75 78 80 84 89 95 102 107 109 111 113 114 113 113 115 116 114 112 111 111 111 112 112 111 108 106 104 101 99 99 97 93 90 88 85 83 82 80 77 74 73 72 72 72 72 71 68 65 62 59 57 57 58 57 54 53 55 54 52 51 50 51 50 50 48 47 46 44 43 41 41 40 40 40 40 40 40 41 41 41 41
49 54 58 64 68 72 75 77 81 87 93 99 105 108 110 112 110 109 110 114 115 115 113 112 111 111 112 113 112 109 107 105 103 101 99 97 93 91 89 86 84 83 82 79 77 75 74 73 73 73 71 68 65 62 60 60 61 60 59 56 56 57 55 53 52 52 53 52 51 49 47 46 45 43 42 41 41 40 40 40 40 41 42 41 41 41
47 52 57 62 65 69 72 74 78 82 89 96 102 106 108 109 108 107 110 113 116 115 114 112 111 110 112 113 113 111 109 107 104 101 99 97 94 93 90 87 85 84 83 82 79 77 76 75 75 74 71 69 66 65 64 64 63 63 61 58 57 57 56 54 53 53 53 53 51 49 47 46 45 44 42 41 41 40 40 41 41 41 42 41 41 41
47 51 55 60 63 67 69 72 75 79 86 93 99 103 106 108 108 108 109 112 115 116 114 112 110 109 110 112 113 112 111 108 104 101 99 97 95 94 92 89 87 85 84 82 80 79 78 77 76 74 72 69 68 67 67 66 65 65 63 59 58 59 58 56 54 54 54 54 52 50 48 47 45 44 43 42 41 41 41 41 41 42 42 42 42 42
46 50 54 58 62 65 68 70 73 78 83 90 96 101 105 107 107 107 107 110 113 115 115 113 111 109 109 112 113 114 112 109 104 101 100 98 96 95 93 90 88 86 84 82 81 81 80 78 76 74 71 70 69 69 68 68 67 66 63 60 59 60 60 57 55 55 55 54 53 51 49 47 45 44 43 42 42 41 42 42 42 43 43 42 42 42
45 49 53 56 59 62 65 68 72 76 81 87 93 98 102 105 106 106 105 108 113 115 116 115 112 109 109 112 114 114 113 109 104 101 100 99 97 96 94 92 90 87 85 83 82 82 81 79 76 73 72 71 71 70 69 68 67 66 63 61 61 62 60 58 57 57 57 55 54 52 49 47 46 45 44 43 42 42 42 43 43 44 44 43 43 43
44 47 51 54 57 60 63 66 70 74 78 84 90 96 100 104 106 106 105 107 112 115 116 115 113 109 109 112 114 115 113 109 105 102 101 100 98 97 95 93 91 88 86 83 82 82 81 79 76 75 73 72 70 70 70 69 68 67 65 63 63 63 61 60 59 58 57 56 54 52 50 48 47 46 45 44 44 43 43 44 44 44 45 44 44 44
43 46 49 52 54 57 61 65 69 72 76 81 86 92 98 102 105 106 105 107 111 115 116 115 113 111 110 112 115 115 113 110 106 103 101 100 99 98 96 94 92 89 86 85 83 82 81 79 78 76 74 73 71 71 71 71 69 68 67 66 65 64 63 62 61 60 58 56 54 52 50 48 47 46 46 45 45 45 45 45 46 46 45 45 45 45
42 45 48 51 53 56 59 62 65 69 73 79 84 90 95 100 103 105 105 107 111 114 115 114 114 112 112 113 115 115 113 111 108 105 102 100 99 99 97 95 92 90 87 85 84 83 81 79 78 77 75 74 74 72 71 70 70 69 67 66 65 65 64 63 63 61 59 57 54 52 51 49 48 48 47 47 47 47 47 47 47 46 46 45 45 45
42 45 47 49 52 55 57 59 62 66 70 75 81 87 92 98 102 104 105 107 110 113 115 115 115 114 113 114 115 115 113 111 109 106 103 101 100 99 98 95 92 90 88 86 83 82 81 79 78 77 76 75 74 73 72 71 70 69 68 67 66 65 65 65 64 62 60 57 55 53 51 50 49 49 49 48 48 48 48 48 47 46 45 45 45 46
Wind_Direction
231 229 229 229 230 230 228 228 228 228 229 229 231 232 230 225 221 221 223 220 216 212 209 211 210 203 197 195 197 199 201 194 182 205 216 209 213 215 209 209 216 222 223 228 231 195 157 160 170 167 168 179 182 185 181 173 177 179 178 183 182 175 167 165 166 169 173 177 180 181 180 177 170 158 138 118 105 98 94 94 91 86 85 86 90 94
231 230 230 230 230 229 229 228 228 228 228 229 230 231 230 226 219 215 218 217 212 207 205 208 204 197 196 197 198 196 195 190 186 201 206 195 205 213 208 205 213 220 218 222 228 201 165 159 170 175 171 176 180 185 182 175 179 180 178 183 184 178 172 169 170 171 174 178 181 184 186 186 183 176 159 136 118 106 99 98 95 90 88 88 91 96
231 230 230 231 230 229 228 228 228 227 227 229 229 230 230 227 220 212 214 215 211 206 205 207 203 197 198 197 196 194 190 190 190 194 194 191 199 208 208 203 207 216 213 212 222 210 177 164 170 180 177 176 181 183 184 181 183 183 180 183 186 182 177 174 176 175 175 178 182 185 188 190 190 187 175 155 134 118 108 105 102 96 92 92 93 97
230 229 229 231 231 230 229 228 227 227 227 228 228 229 229 227 220 212 211 212 209 206 204 206 204 199 200 196 194 193 189 190 190 186 184 186 192 199 203 199 200 212 213 209 215 210 194 181 176 180 177 177 183 184 187 186 184 186 185 184 187 187 182 178 179 177 176 178 181 185 187 190 192 189 179 162 144 129 118 114 111 104 99 97 96 98
231 230 229 230 231 231 230 228 228 227 227 228 227 227 227 227 223 215 210 210 210 207 204 207 207 202 202 200 195 193 190 188 184 180 180 186 192 194 194 193 196 207 211 208 209 214 217 201 181 177 173 174 181 182 186 191 190 192 194 190 188 190 188 183 180 179 177 178 179 182 185 187 189 186 177 165 152 140 130 125 121 113 106 103 100 100
231 231 231 230 231 231 231 230 229 228 227 227 227 226 226 226 224 217 209 208 211 209 205 204 205 203 203 203 200 195 191 187 185 188 190 191 194 194 189 190 196 201 206 202 200 215 231 220 187 174 170 172 179 181 185 190 194 198 200 197 192 192 192 187 181 179 178 178 178 180 181 183 184 182 177 168 160 151 142 137 130 122 114 109 106 104
231 232 232 231 231 231 231 230 229 229 227 227 227 226 225 225 224 219 209 207 211 210 207 203 203 204 202 202 203 197 190 187 186 189 189 187 191 194 189 191 194 196 200 198 194 206 226 230 208 186 173 172 178 183 187 189 195 200 198 199 197 195 196 192 184 179 178 178 180 181 182 183 183 181 177 173 167 162 155 149 142 133 125 118 115 114
231 231 231 231 231 230 230 230 230 230 227 226 227 226 225 224 224 221 213 208 210 211 208 204 204 206 203 201 202 198 192 189 188 188 186 184 188 191 192 194 194 194 196 196 196 202 216 233 235 209 178 172 177 181 187 189 193 198 194 198 202 198 197 195 188 183 179 179 182 185 187 187 185 181 178 176 174 169 165 160 154 146 139 132 128 125
231 231 230 229 230 230 229 230 230 230 227 226 227 226 225 224 223 222 217 210 209 211 209 206 206 207 206 204 200 196 194 192 193 193 188 186 187 189 194 196 194 195 194 194 198 202 213 229 242 231 194 175 175 177 183 189 191 195 193 194 202 202 199 197 193 187 183 184 187 189 191 191 188 185 182 180 178 175 172 169 166 161 156 150 145 141
231 231 231 229 229 230 229 229 230 229 227 227 227 225 224 223 222 222 219 213 210 208 208 209 207 206 210 208 199 196 196 195 197 197 191 189 186 185 192 194 193 197 197 195 198 202 211 224 241 246 221 184 175 177 182 188 189 191 192 192 197 202 201 200 197 193 190 191 192 193 194 192 191 188 186 184 183 182 181 180 179 176 174 170 165 160
230 230 231 230 228 229 230 230 230 229 228 228 227 225 224 223 222 221 219 215 210 204 206 210 208 206 211 211 203 198 199 200 202 199 194 191 186 183 188 190 192 196 196 195 199 202 207 220 236 246 238 205 183 181 184 188 188 186 190 192 191 198 203 202 201 198 197 198 197 198 197 196 196 194 192 190 190 192 193 193 193 191 191 188 184 180
230 229 230 230 228 228 229 230 230 229 228 228 228 226 224 224 223 221 219 216 210 203 207 210 207 207 210 211 208 203 203 205 204 202 198 194 190 187 187 189 194 197 194 194 198 199 201 217 233 237 239 226 195 183 184 188 189 185 188 192 190 195 201 203 204 203 204 205 204 202 201 200 201 201 200 198 199 202 203 205 205 205 205 203 199 196
231 229 228 229 228 227 228 229 229 228 227 228 228 226 225 224 223 221 219 217 211 208 210 209 207 208 208 210 210 208 207 207 206 204 200 197 194 191 190 192 197 198 196 197 198 195 200 216 230 231 234 232 210 189 183 186 190 189 189 192 193 195 197 202 208 209 209 210 210 209 206 203 204 206 207 208 208 210 211 213 214 213 214 213 211 209
231 229 228 228 228 227 227 228 229 228 226 227 227 226 224 224 224 221 219 217 214 212 212 210 208 206 206 210 211 210 210 209 207 206 203 199 196 193 194 195 198 199 200 203 200 195 202 213 224 227 228 232 226 206 189 184 187 191 191 190 194 198 198 200 207 213 216 216 215 214 211 208 208 209 211 214 215 216 217 219 220 220 221 222 223 223
231 230 228 227 226 225 225 227 227 227 226 226 226 225 223 223 223 221 218 217 215 214 213 212 209 205 206 210 211 211 212 212 210 208 205 202 198 195 195 196 199 201 201 205 205 200 203 209 217 224 224 228 231 222 205 191 186 188 191 189 190 199 203 202 204 211 218 221 221 219 214 212 212 212 214 215 217 218 219 223 225 226 227 230 233 235
230 230 229 227 226 225 224 226 227 227 226 226 226 225 222 221 222 221 218 215 215 214 214 213 209 205 206 210 211 211 213 214 212 212 209 204 199 196 196 196 197 199 199 203 208 206 205 208 213 219 221 224 228 227 220 204 191 189 190 190 190 194 202 205 207 210 213 219 223 222 219 215 214 215 216 216 216 218 221 225 229 231 233 235 238 240
230 230 229 227 226 226 224 225 227 227 226 226 226 226 223 222 223 222 218 215 214 213 214 215 212 207 206 210 212 210 212 214 213 213 212 207 202 199 198 197 197 199 200 202 206 206 203 207 213 216 219 222 226 228 226 219 205 193 189 192 193 193 197 203 207 210 212 215 218 221 222 220 218 218 218 219 219 219 223 230 234 235 237 239 242 244
230 231 230 227 226 226 223 222 224 226 226 225 226 226 223 221 222 222 219 215 214 213 213 214 214 212 207 209 213 211 211 214 214 215 213 208 206 203 200 199 199 201 202 204 207 206 203 208 217 218 217 221 224 224 224 223 215 204 194 193 194 196 198 200 204 208 211 213 214 216 220 223 224 223 222 221 221 223 228 233 235 236 238 241 244 244
229 230 230 226 225 225 224 222 222 224 225 224 225 225 223 220 221 222 219 216 214 213 213 213 214 214 210 208 212 212 211 213 216 217 215 211 208 207 203 202 203 203 204 205 208 208 205 210 221 223 219 220 223 222 222 221 219 215 207 200 198 199 200 199 199 206 211 214 213 213 216 222 226 228 228 227 226 227 230 232 233 233 236 241 243 243
229 229 229 227 224 224 224 223 220 222 224 223 223 224 223 220 220 221 219 215 213 213 213 212 211 214 212 209 212 214 212 213 216 218 216 213 211 209 206 206 207 207 207 206 208 209 206 208 218 225 224 222 222 222 224 225 224 223 220 215 208 204 201 199 198 201 207 211 213 213 214 218 223 227 230 231 232 231 231 232 232 231 232 238 242 242
229 228 228 226 225 223 223 223 221 220 222 223 222 223 223 222 220 221 219 216 213 213 213 212 210 212 214 210 211 215 214 213 216 218 216 214 212 210 209 208 209 211 211 210 210 212 210 207 212 220 225 225 223 221 224 226 227 226 225 226 221 213 207 204 203 202 203 207 211 213 213 216 219 223 227 231 233 234 233 232 232 231 230 233 238 240
228 227 227 226 226 224 223 223 222 220 220 222 222 221 222 222 221 221 220 217 214 213 213 212 209 210 214 211 210 216 217 214 215 217 216 214 212 211 210 209 210 212 214 214 213 214 216 214 213 215 218 222 222 222 222 224 227 229 229 231 230 225 218 212 209 207 206 207 210 213 215 217 218 220 222 226 230 233 234 235 234 234 232 231 234 237
227 226 226 226 226 225 223 222 221 220 219 220 221 220 219 220 219 218 218 217 215 214 214 213 210 210 214 212 210 216 220 218 216 218 217 214 212 212 212 210 210 212 214 216 214 214 218 220 219 216 215 218 223 224 224 224 226 228 230 233 234 233 230 224 219 214 212 212 213 214 217 219 221 223 223 224 226 229 231 234 236 237 236 234 234 237
226 225 224 224 225 224 223 221 220 220 220 220 220 220 219 218 218 217 216 215 213 213 213 213 211 210 212 211 210 215 221 221 219 218 219 216 213 213 213 211 211 211 214 217 216 216 218 220 222 221 218 219 223 225 225 224 225 226 227 230 232 234 235 234 229 222 217 216 216 216 217 220 223 225 227 227 228 229 230 232 234 236 238 237 236 237
226 225 224 223 224 224 222 221 220 220 220 220 219 220 220 218 219 218 216 214 213 211 212 212 211 210 211 211 210 214 220 224 223 219 219 219 215 213 213 211 210 211 213 216 218 217 217 219 221 221 220 222 224 225 225 225 225 225 225 225 228 232 235 236 235 231 225 220 218 217 218 221 224 226 228 230 231 232 232 233 234 235 236 238 238 239
227 225 223 222 222 223 222 221 219 219 219 218 217 218 219 218 218 219 218 215 213 212 212 212 211 210 210 209 210 212 217 223 225 220 217 219 218 215 214 213 212 213 214 217 219 219 218 219 221 222 223 227 227 226 227 228 226 225 226 225 224 227 232 235 236 235 233 228 222 219 219 222 225 227 229 230 231 233 234 235 236 236 236 237 238 241
226 224 223 222 221 221 221 221 219 219 220 218 215 215 216 216 215 217 217 216 213 212 213 212 211 210 210 208 209 211 215 221 225 221 217 219 221 218 216 215 214 214 215 217 219 222 221 220 222 224 225 228 229 228 229 230 229 228 228 227 224 225 229 233 236 238 237 234 229 224 222 222 225 229 230 231 232 233 234 236 238 239 239 239 239 241
226 224 223 221 220 220 220 220 219 219 219 218 216 215 216 215 213 214 215 213 212 212 212 212 211 211 210 209 208 211 216 220 223 222 218 218 219 217 214 214 215 214 215 215 216 218 220 220 221 223 224 227 229 230 229 229 230 229 229 228 227 226 228 231 234 237 238 238 236 231 227 225 227 231 233 233 233 233 235 236 238 240 241 241 241 241
225 224 223 221 219 218 219 219 219 218 218 218 216 215 215 215 214 213 213 211 210 210 211 211 211 210 210 209 208 212 218 220 220 222 220 218 218 218 215 215 217 217 218 218 217 218 218 218 220 223 224 226 228 229 229 229 229 229 227 227 226 226 227 229 232 234 236 238 238 238 234 231 231 233 235 236 236 234 234 235 236 238 240 242 242 243
224 223 223 222 219 217 218 219 218 218 218 217 217 215 213 214 214 214 213 212 210 208 209 210 211 210 209 208 206 210 220 222 219 220 221 219 219 219 216 216 219 220 220 219 218 218 219 218 220 223 225 226 227 228 229 229 228 228 226 225 225 226 226 228 231 233 235 237 240 242 242 240 237 235 236 238 239 237 236 236 237 237 238 240 241 243
224 222 222 221 218 217 217 218 218 218 217 217 217 215 213 213 214 213 212 212 210 209 208 209 210 209 209 208 205 209 218 222 219 219 220 219 219 219 217 216 219 220 220 218 216 217 219 219 219 221 223 225 226 227 229 229 229 228 227 225 225 226 227 228 230 232 234 236 240 243 245 245 244 240 238 238 240 241 239 238 238 238 238 240 240 241
223 222 222 221 218 216 216 217 217 217 217 216 216 215 213 212 212 213 212 210 209 210 209 209 209 209 208 207 206 208 216 220 218 217 219 219 219 219 218 216 217 219 220 218 216 216 218 219 219 220 221 222 224 225 227 228 228 229 228 226 226 226 226 228 229 231 233 235 238 241 244 245 246 245 242 241 241 241 241 239 239 238 238 239 239 240
223 221 221 220 218 216 216 216 216 216 216 215 215 215 213 211 211 212 211 209 208 209 209 209 210 209 208 207 206 208 214 218 218 217 217 218 218 220 220 218 217 218 219 217 216 216 216 218 219 220 220 221 222 224 226 227 227 228 228 227 227 227 228 229 231 232 233 235 237 239 242 244 245 245 244 244 243 243 242 240 239 238 238 238 239 240
222 221 221 219 217 215 215 216 216 215 215 214 214 214 213 211 210 210 210 208 207 208 208 208 210 210 209 208 207 209 213 215 216 217 216 216 216 218 220 219 217 217 218 216 216 215 215 216 218 219 220 221 221 223 224 226 226 227 227 228 228 229 230 231 233 234 235 236 237 238 240 242 243 243 243 244 245 245 244 242 241 240 239 239 238 239
220 220 220 219 216 215 215 215 215 215 214 212 213 214 213 211 209 209 209 207 207 208 207 206 208 209 209 208 208 210 214 214 214 216 215 214 215 217 219 219 217 217 217 216 215 215 215 216 217 218 219 220 220 221 222 224 226 226 226 227 227 228 230 232 233 235 235 236 237 238 239 240 241 242 242 243 244 245 245 245 244 243 241 240 239 240
218 218 219 218 216 214 214 214 214 214 212 211 213 214 212 211 209 208 208 207 206 206 206 206 206 206 207 207 207 209 214 215 213 215 215 212 213 214 216 218 217 216 216 215 215 215 215 215 216 217 219 221 221 221 221 223 225 224 224 226 226 226 228 231 233 234 235 236 238 239 239 240 241 241 241 242 242 244 245 246 246 245 244 243 242 242
215 216 217 216 215 215 214 214 213 212 210 210 212 213 212 211 209 207 207 207 206 205 206 206 206 206 206 207 206 209 214 215 213 214 215 211 207 208 212 215 216 216 216 216 215 215 216 216 216 218 220 221 221 221 222 223 224 223 223 225 225 226 227 229 232 233 235 236 238 239 240 241 241 242 242 242 242 243 244 245 247 248 247 246 245 244
213 213 215 214 214 214 214 214 212 211 209 210 211 212 211 210 209 207 206 206 205 205 205 206 205 206 207 207 207 209 214 215 213 213 215 213 208 207 210 213 216 216 216 217 216 216 217 217 217 219 221 221 222 222 222 223 223 223 223 224 224 225 225 228 231 232 234 235 237 239 240 241 242 243 244 244 244 245 245 246 247 249 249 249 248 247
211 211 213 213 212 213 214 213 211 209 208 209 209 210 211 210 208 206 205 205 205 203 203 204 205 206 207 206 207 209 214 216 213 212 215 216 212 210 209 212 216 216 216 217 217 216 216 217 218 220 222 222 222 222 222 223 223 223 223 223 224 225 225 227 230 232 233 235 236 238 240 242 244 245 246 247 247 247 248 248 249 250 251 251 251 250
210 210 210 211 211 212 213 212 211 208 207 207 208 209 209 209 208 206 204 205 204 202 202 203 204 205 206 206 207 209 213 215 213 212 215 217 215 212 211 212 216 217 216 217 217 216 216 217 218 221 222 223 223 223 222 222 222 223 224 223 224 225 225 226 229 231 233 235 236 237 239 241 243 245 247 248 250 250 249 250 250 251 252 253 252 252
209 209 208 209 210 212 212 211 209 207 206 206 207 208 208 208 208 206 203 203 204 202 201 202 203 204 205 206 207 209 213 214 212 212 215 217 216 215 213 212 214 217 217 217 217 217 217 217 219 221 223 224 224 224 223 222 222 223 224 223 224 226 226 227 228 231 233 235 235 237 239 241 243 245 247 249 250 251 250 250 251 252 253 254 255 255
209 208 207 208 209 211 211 209 207 206 204 205 206 207 207 208 208 206 203 203 203 202 201 202 203 203 204 205 207 209 212 213 212 211 214 216 216 216 215 212 213 215 216 217 217 217 217 218 219 221 223 224 224 223 223 222 222 223 224 223 224 226 227 228 229 231 233 235 236 238 240 242 245 247 248 250 252 252 252 251 251 252 253 255 256 257
208 207 206 207 208 209 209 208 207 205 204 204 205 205 206 207 207 205 203 202 202 202 201 201 202 203 204 205 206 208 211 212 211 211 213 215 216 216 216 213 212 214 216 216 216 216 217 218 219 221 222 223 223 223 222 222 223 224 225 224 225 228 229 229 229 231 234 236 238 240 242 244 247 249 251 253 254 254 254 253 252 253 254 255 257 258
206 206 206 207 207 208 208 207 206 205 203 203 204 204 205 206 206 205 203 201 201 202 201 201 202 203 204 205 206 208 210 211 211 211 212 213 215 216 216 214 213 213 214 215 216 216 217 218 219 220 221 222 222 222 222 223 224 225 225 225 226 229 230 230 230 232 235 237 239 241 243 245 248 250 252 254 256 256 255 254 254 253 254 255 256 258
204 205 206 206 206 206 206 206 205 204 203 203 203 204 204 205 205 204 202 200 201 201 201 201 202 203 204 205 206 208 210 211 210 210 211 213 214 215 216 215 214 213 213 214 215 216 217 219 219 220 221 221 221 222 223 224 225 226 226 226 226 229 230 230 230 232 235 238 240 241 243 245 248 250 253 255 256 256 255 255 254 254 254 255 256 257
203 203 205 206 206 205 205 204 203 203 202 202 203 203 203 204 204 204 201 199 200 201 201 201 201 203 204 205 206 208 210 210 209 209 210 212 213 215 216 215 215 214 213 213 215 216 218 219 220 220 220 221 222 223 224 225 225 226 227 226 226 228 230 230 230 232 235 238 239 241 243 245 248 250 252 254 255 255 255 254 253 253 253 254 255 256
204 204 205 205 205 205 204 203 202 202 201 201 201 202 202 203 204 203 201 199 199 200 201 200 201 202 203 205 206 209 210 210 209 209 210 212 213 214 216 215 215 214 213 213 214 216 218 219 220 220 220 222 223 224 225 226 226 227 227 226 227 229 230 229 231 233 235 237 239 241 243 245 247 250 252 253 254 255 254 254 252 252 252 253 254 255
205 205 205 205 205 204 203 203 202 201 200 200 200 201 201 202 203 202 200 198 198 200 201 200 200 202 203 205 206 208 210 210 209 209 210 211 213 214 215 215 215 215 214 214 214 216 217 218 219 220 221 222 224 225 226 226 227 227 226 226 226 228 229 230 232 234 236 238 240 242 244 246 248 250 252 253 254 254 254 253 251 251 251 252 253 254
206 206 206 205 204 204 203 203 202 200 199 199 199 200 200 201 202 201 200 198 198 199 200 200 200 201 203 205 206 208 209 210 210 209 210 211 212 214 215 215 215 215 215 215 215 216 217 218 219 220 221 222 223 225 227 227 227 227 227 226 226 228 229 230 232 234 236 238 240 242 244 246 248 250 252 253 255 255 254 253 251 250 251 251 253 254
207 207 206 205 203 203 204 203 202 200 198 198 198 199 199 200 201 201 199 198 198 199 199 199 200 202 203 204 206 207 208 209 210 210 210 210 212 214 215 215 215 215 215 215 216 216 217 218 219 220 221 222 224 225 227 228 228 228 228 228 228 230 231 232 233 235 237 239 241 243 245 246 248 250 252 254 255 256 255 254 253 252 252 252 254 255
210 209 208 205 203 202 203 203 201 200 198 197 197 198 199 199 200 200 199 198 198 199 199 199 200 202 203 204 205 207 208 208 209 210 210 210 212 214 215 215 216 216 216 216 216 217 218 218 220 221 221 222 224 225 227 228 229 229 229 230 231 232 233 234 235 237 238 240 242 243 245 247 249 250 252 254 255 256 255 255 254 253 253 253 254 256
Height
10899 10904 10910 10912 10911 10910 10914 10918 10921 10926 10931 10933 10934 10937 10942 10946 10949 10952 10954 10957 10959 10960 10961 10962 10964 10967 10969 10972 10975 10978 10981 10984 10985 10989 10993 10996 10996 10996 10995 10995 10994 10995 10994 10993 10992 10990 10989 10989 10990 10990 10991 10992 10992 10992 10993 10993 10994 10994 10995 10997 10998 10999 11000 11000 11001 11003 11004 11006 11008 11009 11010 11012 11013 11014 11015 11015 11015 11016 11016 11016 11017 11017 11018 11018 11019 11019
10893 10900 10904 10902 10901 10904 10909 10914 10917 10923 10927 10928 10930 10934 10938 10942 10946 10949 10952 10954 10957 10958 10959 10960 10962 10965 10967 10969 10972 10975 10978 10980 10983 10988 10992 10995 10996 10996 10994 10993 10993 10994 10993 10992 10991 10989 10988 10989 10989 10990 10991 10992 10992 10993 10994 10994 10994 10995 10996 10997 10998 10999 11000 11001 11001 11002 11004 11006 11008 11009 11011 11012 11014 11015 11015 11016 11017 11017 11017 11017 11018 11019 11019 11020 11020 11021
10888 10894 10894 10891 10893 10898 10903 10908 10912 10918 10921 10923 10926 10930 10934 10938 10942 10947 10950 10952 10954 10956 10957 10958 10960 10962 10964 10966 10970 10972 10975 10977 10981 10986 10990 10994 10997 10997 10994 10992 10992 10992 10992 10992 10991 10990 10988 10988 10989 10990 10991 10992 10993 10993 10994 10994 10995 10995 10996 10997 10999 10999 11000 11001 11002 11003 11004 11006 11008 11010 11012 11013 11014 11016 11016 11017 11017 11018 11018 11019 11019 11020 11021 11021 11022 11022
10881 10884 10883 10883 10887 10892 10898 10903 10907 10911 10915 10918 10921 10925 10929 10933 10938 10943 10945 10947 10950 10952 10954 10956 10958 10960 10962 10964 10968 10970 10972 10975 10979 10983 10986 10990 10995 10996 10993 10991 10990 10991 10991 10991 10991 10990 10989 10989 10989 10990 10991 10992 10993 10993 10994 10995 10995 10996 10997 10997 10999 11000 11000 11001 11002 11004 11005 11007 11008 11010 11012 11014 11015 11016 11017 11018 11018 11019 11019 11020 11021 11022 11022 11022 11023 11023
10871 10872 10873 10877 10882 10886 10892 10897 10901 10905 10909 10912 10915 10920 10924 10927 10933 10937 10941 10945 10947 10950 10953 10955 10957 10959 10961 10962 10965 10967 10968 10972 10977 10980 10983 10986 10990 10992 10990 10988 10988 10990 10992 10991 10991 10990 10990 10990 10990 10990 10990 10992 10993 10993 10994 10995 10996 10997 10997 10998 10999 11000 11001 11002 11003 11005 11006 11008 11009 11011 11013 11014 11016 11017 11018 11019 11019 11019 11020 11021 11022 11023 11023 11023 11024 11024
10862 10863 10866 10872 10876 10880 10885 10891 10895 10898 10902 10906 10910 10915 10918 10922 10927 10932 10938 10942 10944 10947 10949 10951 10954 10957 10958 10960 10962 10964 10966 10970 10973 10977 10980 10983 10986 10986 10985 10985 10987 10990 10991 10991 10990 10990 10991 10991 10991 10990 10991 10992 10993 10994 10994 10995 10996 10997 10998 10998 10999 11000 11001 11002 11004 11006 11008 11009 11010 11012 11013 11015 11016 11017 11018 11019 11020 11020 11021 11022 11023 11024 11024 11025 11025 11025
10853 10854 10859 10864 10868 10872 10877 10882 10887 10890 10895 10901 10904 10908 10912 10917 10923 10929 10934 10938 10940 10943 10946 10949 10952 10953 10955 10958 10960 10963 10965 10967 10969 10972 10976 10980 10982 10982 10983 10984 10985 10987 10988 10988 10989 10990 10991 10992 10992 10991 10991 10991 10993 10994 10994 10994 10995 10996 10997 10998 10999 11000 11001 11003 11005 11006 11008 11010 11011 11012 11013 11014 11015 11017 11018 11019 11020 11021 11022 11023 11024 11024 11025 11026 11026 11027
10842 10844 10850 10856 10859 10864 10870 10875 10879 10881 10888 10895 10897 10900 10906 10911 10918 10924 10929 10934 10937 10939 10943 10947 10950 10951 10954 10957 10959 10962 10965 10967 10968 10970 10974 10977 10979 10980 10981 10982 10983 10984 10985 10986 10988 10990 10991 10993 10994 10992 10991 10990 10991 10993 10994 10994 10995 10996 10997 10998 11000 11001 11002 11004 11005 11007 11009 11010 11011 11012 11013 11014 11016 11017 11019 11020 11021 11022 11023 11024 11024 11025 11026 11027 11027 11028
10831 10835 10840 10845 10849 10855 10862 10866 10867 10871 10881 10887 10888 10892 10899 10906 10913 10918 10922 10928 10932 10935 10941 10945 10947 10950 10953 10954 10957 10961 10964 10966 10968 10970 10972 10974 10976 10978 10979 10980 10980 10981 10983 10985 10987 10990 10992 10994 10995 10994 10992 10991 10991 10992 10993 10994 10994 10995 10996 10998 10999 11001 11002 11003 11005 11007 11008 11010 11011 11012 11013 11015 11016 11018 11019 11020 11021 11022 11023 11024 11025 11026 11027 11028 11028 11029
10820 10824 10828 10836 10843 10848 10852 10855 10856 10864 10874 10878 10879 10886 10894 10901 10906 10910 10916 10922 10926 10932 10939 10942 10945 10948 10950 10951 10955 10959 10961 10963 10965 10967 10970 10971 10973 10975 10976 10977 10978 10980 10982 10983 10986 10989 10991 10993 10995 10995 10993 10992 10991 10991 10992 10993 10993 10994 10995 10997 10998 11000 11002 11003 11005 11006 11008 11009 11010 11011 11013 11015 11017 11018 11019 11021 11022 11023 11024 11025 11026 11027 11028 11028 11029 11030
10808 10813 10819 10828 10837 10840 10842 10844 10848 10857 10867 10869 10873 10882 10888 10892 10896 10902 10910 10915 10921 10930 10935 10937 10941 10944 10946 10949 10953 10956 10958 10959 10961 10964 10967 10968 10970 10972 10974 10976 10978 10980 10981 10982 10985 10988 10990 10993 10995 10996 10995 10993 10991 10991 10991 10992 10993 10993 10994 10996 10997 10999 11001 11003 11004 11006 11007 11008 11009 11011 11013 11015 11017 11018 11020 11021 11022 11023 11024 11025 11026 11027 11028 11029 11030 11030
10793 10803 10812 10818 10824 10829 10831 10835 10841 10850 10859 10862 10866 10874 10880 10884 10888 10895 10904 10909 10918 10929 10931 10932 10936 10939 10943 10947 10949 10952 10953 10955 10959 10962 10964 10966 10968 10969 10971 10974 10976 10978 10979 10981 10983 10985 10987 10992 10995 10995 10995 10994 10992 10991 10991 10992 10992 10993 10994 10995 10996 10998 11000 11002 11004 11005 11006 11007 11009 11010 11013 11015 11017 11018 11020 11021 11022 11023 11025 11026 11027 11028 11028 11029 11030 11031
10782 10794 10802 10804 10811 10818 10821 10825 10832 10840 10849 10853 10856 10864 10872 10876 10880 10889 10898 10905 10915 10923 10924 10926 10931 10934 10939 10941 10944 10947 10949 10952 10956 10959 10961 10963 10966 10968 10969 10971 10973 10974 10976 10978 10979 10980 10984 10991 10994 10994 10994 10993 10992 10991 10990 10991 10992 10993 10993 10994 10995 10997 10999 11001 11003 11004 11005 11007 11008 11010 11012 11015 11016 11018 11020 11021 11022 11023 11024 11026 11027 11028 11029 11029 11030 11031
10773 10782 10788 10790 10798 10807 10813 10818 10823 10832 10840 10843 10846 10854 10863 10868 10872 10882 10892 10900 10910 10915 10916 10919 10923 10929 10933 10935 10938 10943 10945 10948 10951 10954 10957 10960 10963 10965 10967 10969 10970 10972 10974 10976 10978 10979 10982 10988 10992 10992 10992 10992 10992 10991 10989 10989 10990 10991 10993 10994 10995 10996 10997 10999 11001 11003 11005 11006 11008 11010 11012 11014 11016 11018 11019 11020 11021 11023 11024 11025 11026 11027 11028 11029 11030 11031
10759 10764 10769 10774 10783 10793 10802 10807 10813 10821 10827 10830 10834 10842 10851 10857 10863 10874 10884 10893 10901 10906 10908 10911 10917 10925 10927 10928 10933 10937 10940 10943 10946 10949 10953 10956 10959 10962 10964 10967 10969 10970 10972 10975 10977 10978 10980 10984 10987 10989 10990 10991 10991 10990 10989 10988 10988 10989 10991 10992 10994 10995 10996 10998 11000 11002 11004 11005 11007 11009 11011 11013 11015 11017 11018 11019 11020 11022 11023 11024 11025 11027 11028 11029 11030 11030
10746 10750 10753 10762 10774 10784 10794 10801 10805 10809 10813 10819 10825 10831 10842 10851 10856 10864 10874 10883 10890 10896 10900 10905 10912 10918 10920 10921 10927 10932 10936 10939 10942 10945 10948 10951 10955 10958 10961 10964 10966 10969 10972 10974 10976 10976 10978 10981 10983 10985 10988 10989 10989 10989 10989 10988 10988 10988 10989 10991 10992 10994 10995 10997 10999 11001 11003 11005 11006 11008 11010 11012 11013 11015 11017 11018 11019 11021 11022 11023 11024 11026 11027 11028 11029 11030
10734 10735 10737 10753 10768 10776 10786 10793 10793 10795 10801 10810 10818 10824 10837 10847 10849 10855 10866 10875 10881 10889 10895 10900 10906 10910 10913 10915 10921 10927 10930 10933 10937 10940 10943 10947 10951 10954 10957 10960 10963 10966 10969 10971 10972 10974 10976 10978 10980 10982 10985 10987 10987 10988 10989 10989 10988 10988 10988 10989 10991 10992 10994 10996 10997 10999 11001 11003 11005 11007 11009 11011 11012 11013 11015 11017 11018 11020 11021 11022 11023 11025 11026 11027 11028 11029
10719 10720 10725 10746 10760 10762 10771 10777 10777 10781 10791 10802 10809 10816 10827 10837 10840 10846 10856 10864 10873 10882 10889 10893 10899 10903 10908 10911 10915 10920 10923 10926 10930 10933 10937 10943 10947 10951 10954 10957 10959 10962 10965 10967 10969 10971 10974 10977 10979 10980 10982 10984 10985 10987 10987 10988 10988 10987 10987 10988 10989 10990 10992 10993 10996 10998 11000 11001 11003 11005 11007 11009 11010 11012 11014 11015 11017 11018 11019 11021 11022 11023 11025 11026 11027 11028
10706 10707 10713 10733 10745 10747 10754 10759 10764 10771 10781 10791 10798 10804 10815 10825 10830 10834 10845 10857 10868 10876 10879 10883 10890 10896 10903 10906 10907 10911 10916 10919 10923 10927 10933 10939 10943 10947 10951 10954 10956 10958 10961 10964 10967 10970 10974 10977 10979 10979 10980 10982 10983 10985 10985 10986 10986 10986 10986 10986 10987 10988 10990 10992 10994 10996 10998 11000 11001 11003 11005 11007 11009 11010 11012 11014 11015 11016 11017 11019 11020 11022 11023 11024 11025 11026
10690 10690 10699 10718 10727 10731 10737 10743 10753 10763 10770 10778 10786 10793 10805 10815 10820 10824 10836 10850 10859 10865 10869 10876 10884 10889 10895 10899 10900 10903 10909 10913 10916 10921 10927 10934 10939 10943 10947 10950 10952 10955 10958 10961 10964 10967 10969 10972 10975 10976 10977 10979 10981 10982 10983 10984 10985 10985 10986 10986 10986 10987 10988 10990 10992 10993 10995 10997 10999 11001 11003 11005 11006 11008 11010 11012 11013 11014 11016 11017 11018 11020 11021 11022 11023 11024
10670 10674 10687 10702 10707 10715 10724 10732 10745 10756 10760 10765 10774 10784 10794 10803 10811 10818 10829 10841 10849 10856 10863 10870 10878 10883 10886 10890 10892 10895 10901 10905 10908 10913 10920 10926 10932 10937 10941 10945 10948 10951 10955 10958 10961 10963 10964 10966 10968 10971 10975 10977 10978 10980 10981 10982 10983 10983 10984 10985 10985 10986 10986 10987 10989 10990 10992 10994 10996 10998 11000 11002 11004 11005 11007 11009 11011 11012 11014 11015 11016 11017 11019 11020 11021 11022
10651 10663 10677 10686 10690 10702 10713 10721 10733 10744 10749 10754 10762 10773 10783 10793 10803 10812 10822 10834 10844 10851 10856 10862 10870 10873 10872 10879 10886 10888 10891 10896 10900 10905 10911 10919 10926 10932 10936 10940 10944 10947 10951 10955 10958 10960 10961 10962 10963 10966 10970 10974 10975 10976 10977 10979 10981 10982 10983 10984 10985 10985 10985 10986 10987 10988 10990 10991 10993 10995 10997 10999 11001 11003 11005 11006 11008 11010 11011 11013 11014 11015 11017 11018 11019 11020
10638 10653 10663 10669 10675 10687 10698 10706 10717 10729 10734 10738 10745 10756 10767 10777 10788 10798 10811 10825 10835 10842 10847 10852 10859 10860 10861 10874 10884 10883 10884 10890 10895 10899 10905 10913 10920 10925 10931 10935 10939 10942 10946 10949 10953 10956 10957 10958 10960 10963 10966 10970 10972 10973 10975 10977 10978 10980 10981 10982 10983 10984 10984 10985 10985 10986 10988 10990 10991 10993 10995 10997 10999 11000 11002 11003 11005 11007 11009 11010 11012 11013 11014 11016 11017 11018
10627 10638 10645 10652 10659 10669 10681 10692 10705 10717 10721 10726 10736 10746 10756 10766 10776 10787 10799 10809 10817 10825 10833 10840 10847 10851 10857 10869 10876 10875 10877 10882 10887 10893 10900 10907 10914 10920 10925 10929 10933 10938 10941 10944 10948 10952 10953 10955 10958 10961 10963 10966 10968 10970 10972 10974 10975 10977 10979 10980 10981 10982 10983 10984 10985 10985 10986 10988 10989 10991 10993 10995 10996 10998 10999 11001 11002 11004 11006 11007 11009 11011 11012 11013 11015 11016
10613 10621 10628 10637 10643 10653 10667 10679 10692 10703 10707 10717 10731 10740 10749 10761 10770 10778 10787 10794 10801 10811 10820 10829 10839 10846 10854 10863 10868 10871 10874 10875 10879 10888 10894 10899 10907 10912 10916 10922 10927 10932 10935 10938 10942 10946 10949 10952 10954 10957 10959 10961 10963 10966 10969 10970 10972 10974 10976 10977 10979 10981 10982 10983 10983 10984 10985 10986 10988 10989 10991 10992 10994 10995 10996 10998 11000 11001 11003 11005 11006 11008 11009 11011 11012 11013
10596 10604 10612 10622 10630 10641 10655 10666 10678 10685 10688 10699 10714 10724 10736 10750 10760 10768 10777 10786 10797 10810 10817 10823 10834 10841 10847 10855 10861 10866 10869 10866 10866 10876 10885 10891 10899 10906 10912 10918 10924 10928 10930 10934 10937 10940 10945 10948 10951 10954 10955 10957 10960 10963 10965 10967 10969 10971 10973 10975 10977 10979 10980 10981 10981 10982 10983 10984 10986 10987 10988 10990 10991 10992 10993 10995 10997 10999 11001 11002 11003 11005 11007 11008 11009 11010
10579 10589 10598 10607 10617 10629 10640 10651 10662 10668 10673 10686 10700 10710 10718 10729 10742 10753 10763 10777 10793 10805 10809 10817 10826 10830 10836 10846 10851 10855 10857 10853 10853 10865 10881 10889 10895 10903 10911 10916 10920 10924 10926 10930 10933 10937 10942 10946 10949 10951 10953 10954 10957 10960 10962 10964 10966 10969 10970 10973 10975 10976 10978 10979 10979 10980 10981 10982 10984 10984 10986 10987 10988 10989 10990 10992 10994 10996 10998 11000 11001 11002 11004 11006 11007 11008
10566 10575 10583 10592 10604 10616 10625 10634 10644 10650 10659 10673 10686 10695 10704 10716 10728 10736 10746 10765 10783 10791 10797 10808 10816 10822 10831 10839 10843 10845 10844 10843 10850 10864 10877 10884 10888 10896 10903 10906 10910 10914 10916 10921 10926 10931 10936 10941 10944 10946 10948 10951 10954 10956 10959 10961 10963 10966 10968 10970 10972 10974 10975 10976 10977 10978 10979 10980 10981 10982 10983 10984 10985 10986 10988 10990 10992 10994 10996 10997 10998 11000 11001 11002 11004 11005
10553 10562 10569 10578 10590 10601 10608 10616 10626 10633 10645 10659 10672 10684 10697 10710 10720 10728 10739 10754 10766 10775 10789 10800 10807 10815 10824 10830 10836 10840 10835 10835 10848 10860 10868 10877 10884 10889 10895 10898 10902 10905 10909 10916 10922 10926 10931 10936 10938 10941 10943 10947 10950 10952 10955 10957 10960 10962 10964 10967 10969 10970 10971 10973 10974 10975 10976 10977 10978 10979 10980 10981 10983 10984 10985 10987 10989 10991 10992 10993 10995 10997 10998 10999 11001 11002
10540 10549 10555 10563 10576 10587 10592 10600 10611 10621 10633 10646 10659 10674 10688 10699 10711 10722 10733 10744 10753 10765 10780 10789 10797 10806 10813 10820 10831 10834 10826 10829 10845 10855 10861 10872 10879 10883 10889 10894 10896 10901 10908 10915 10920 10925 10929 10932 10935 10937 10939 10943 10946 10948 10950 10953 10956 10958 10960 10962 10964 10966 10967 10969 10971 10972 10973 10975 10975 10977 10978 10980 10980 10982 10983 10984 10985 10987 10989 10990 10992 10993 10995 10996 10997 10999
10527 10536 10541 10548 10562 10573 10580 10589 10600 10611 10623 10634 10647 10663 10676 10688 10699 10708 10720 10734 10750 10763 10772 10777 10786 10796 10804 10812 10821 10822 10816 10822 10837 10849 10856 10865 10871 10876 10883 10888 10890 10896 10903 10909 10915 10920 10924 10927 10930 10932 10935 10938 10941 10943 10946 10949 10951 10953 10956 10958 10960 10962 10964 10965 10967 10968 10970 10972 10973 10974 10976 10977 10978 10979 10980 10981 10982 10983 10985 10987 10988 10990 10991 10992 10994 10995
10515 10523 10527 10535 10548 10561 10569 10576 10586 10599 10610 10620 10634 10650 10662 10673 10685 10696 10710 10728 10745 10757 10764 10769 10777 10785 10792 10802 10810 10811 10808 10813 10828 10843 10852 10857 10862 10869 10876 10881 10886 10891 10898 10903 10909 10914 10917 10921 10924 10926 10929 10932 10935 10938 10941 10944 10947 10949 10952 10954 10955 10957 10959 10961 10962 10964 10966 10968 10970 10971 10973 10974 10975 10976 10977 10978 10979 10980 10981 10983 10984 10986 10987 10988 10990 10991
10504 10511 10516 10524 10537 10550 10556 10561 10572 10585 10593 10605 10623 10638 10650 10662 10674 10687 10702 10720 10734 10742 10750 10760 10768 10774 10781 10791 10799 10802 10803 10809 10823 10835 10842 10847 10855 10862 10870 10876 10883 10887 10892 10898 10903 10907 10912 10916 10919 10921 10923 10927 10930 10933 10935 10938 10942 10945 10947 10949 10951 10953 10955 10957 10959 10961 10963 10965 10966 10967 10969 10970 10972 10973 10974 10975 10975 10976 10978 10979 10980 10981 10982 10984 10986 10987
10493 10500 10506 10513 10525 10536 10542 10549 10560 10569 10581 10601 10617 10625 10635 10649 10663 10677 10692 10710 10722 10727 10737 10751 10760 10767 10778 10788 10794 10796 10799 10806 10816 10823 10831 10841 10849 10856 10862 10869 10876 10881 10886 10891 10897 10901 10905 10909 10911 10914 10917 10921 10924 10927 10930 10933 10937 10940 10943 10946 10948 10951 10953 10954 10956 10958 10960 10961 10962 10963 10965 10967 10968 10969 10970 10971 10972 10973 10974 10975 10976 10977 10978 10980 10982 10983
10484 10490 10495 10503 10515 10524 10529 10536 10544 10554 10574 10595 10602 10606 10621 10638 10653 10668 10681 10693 10703 10711 10726 10739 10746 10760 10777 10785 10789 10791 10792 10797 10806 10814 10824 10834 10841 10848 10854 10861 10868 10875 10879 10885 10891 10895 10898 10901 10904 10907 10910 10914 10917 10920 10924 10929 10932 10935 10939 10942 10945 10947 10948 10950 10952 10954 10955 10956 10958 10959 10961 10962 10963 10964 10966 10967 10968 10969 10970 10971 10972 10973 10974 10976 10977 10978
10474 10479 10484 10493 10504 10510 10514 10522 10532 10547 10569 10582 10584 10595 10615 10629 10640 10653 10666 10677 10689 10704 10719 10728 10736 10752 10765 10769 10775 10780 10780 10786 10797 10806 10814 10824 10833 10841 10847 10853 10861 10868 10873 10879 10885 10888 10892 10895 10898 10901 10903 10907 10911 10915 10920 10923 10926 10930 10934 10937 10939 10942 10944 10946 10948 10949 10951 10952 10953 10955 10956 10958 10959 10960 10961 10962 10963 10965 10966 10967 10967 10968 10970 10971 10973 10974
10464 10469 10476 10485 10493 10500 10506 10514 10524 10541 10559 10570 10577 10590 10606 10618 10630 10645 10659 10675 10690 10702 10712 10721 10733 10746 10752 10755 10765 10770 10768 10775 10788 10797 10804 10814 10826 10834 10840 10846 10854 10861 10867 10873 10879 10883 10886 10889 10892 10894 10896 10900 10906 10911 10914 10917 10920 10925 10929 10932 10935 10937 10939 10941 10943 10944 10946 10947 10949 10950 10952 10953 10954 10955 10956 10958 10959 10960 10961 10962 10963 10965 10966 10968 10969 10970
10456 10462 10468 10476 10484 10491 10496 10503 10515 10533 10551 10562 10570 10582 10595 10610 10625 10639 10652 10665 10677 10689 10701 10713 10726 10734 10739 10747 10758 10762 10760 10764 10779 10791 10797 10806 10819 10829 10835 10840 10846 10854 10861 10867 10872 10877 10881 10885 10887 10887 10889 10895 10900 10905 10908 10911 10916 10920 10923 10927 10929 10932 10934 10936 10937 10939 10941 10942 10944 10946 10947 10948 10949 10951 10952 10953 10954 10955 10956 10958 10959 10961 10962 10964 10965 10966
10448 10454 10460 10468 10476 10481 10485 10494 10508 10526 10541 10552 10561 10572 10585 10599 10612 10626 10639 10649 10657 10671 10686 10701 10713 10722 10731 10741 10749 10752 10750 10754 10771 10788 10793 10799 10812 10822 10828 10834 10840 10847 10854 10860 10865 10871 10875 10879 10880 10880 10883 10889 10894 10899 10903 10907 10912 10915 10918 10921 10923 10926 10929 10930 10931 10933 10934 10937 10939 10941 10942 10943 10944 10946 10947 10948 10949 10951 10952 10954 10955 10957 10958 10960 10961 10962
10442 10446 10453 10461 10468 10471 10477 10489 10503 10518 10531 10542 10552 10561 10572 10586 10598 10609 10622 10634 10646 10661 10675 10687 10699 10710 10722 10731 10737 10740 10741 10749 10769 10785 10787 10791 10804 10814 10822 10829 10834 10840 10847 10853 10858 10864 10868 10871 10872 10873 10878 10883 10888 10893 10897 10902 10907 10910 10912 10916 10918 10920 10923 10924 10925 10927 10929 10932 10934 10936 10937 10938 10939 10941 10942 10944 10945 10947 10948 10949 10951 10952 10954 10955 10956 10957
10435 10440 10447 10454 10460 10465 10472 10483 10497 10511 10523 10533 10540 10550 10562 10575 10584 10595 10610 10626 10641 10656 10670 10680 10688 10698 10709 10719 10725 10731 10736 10746 10764 10776 10777 10783 10795 10805 10815 10823 10828 10834 10841 10846 10851 10857 10861 10864 10866 10868 10872 10878 10883 10888 10893 10898 10902 10904 10906 10910 10913 10914 10915 10917 10920 10922 10924 10927 10929 10930 10931 10933 10934 10936 10938 10939 10941 10942 10944 10945 10946 10947 10948 10950 10952 10953
10431 10436 10442 10448 10452 10458 10467 10478 10489 10500 10512 10521 10530 10542 10555 10564 10575 10592 10611 10625 10636 10650 10663 10672 10680 10689 10699 10707 10716 10723 10730 10740 10755 10765 10769 10776 10787 10797 10807 10816 10823 10828 10833 10839 10845 10851 10854 10857 10860 10863 10867 10873 10878 10884 10889 10893 10895 10897 10901 10905 10906 10906 10908 10912 10916 10917 10918 10920 10922 10924 10927 10928 10930 10932 10934 10935 10936 10938 10939 10940 10941 10943 10944 10945 10947 10948
10429 10433 10438 10442 10447 10453 10462 10473 10482 10492 10503 10513 10522 10533 10545 10556 10572 10592 10608 10619 10630 10643 10655 10663 10672 10681 10690 10699 10708 10715 10722 10732 10745 10755 10762 10771 10780 10788 10798 10808 10816 10821 10827 10833 10839 10844 10847 10851 10854 10857 10863 10868 10874 10879 10883 10886 10888 10891 10895 10898 10899 10900 10904 10909 10911 10912 10913 10915 10917 10920 10922 10924 10926 10928 10929 10931 10932 10933 10935 10936 10937 10938 10939 10941 10943 10944
10425 10429 10433 10438 10444 10451 10459 10468 10478 10489 10499 10507 10516 10527 10539 10553 10568 10583 10597 10609 10621 10634 10646 10657 10666 10675 10683 10692 10700 10707 10713 10723 10737 10749 10757 10764 10772 10780 10789 10800 10808 10814 10820 10826 10832 10838 10842 10845 10848 10852 10858 10863 10868 10872 10876 10879 10882 10885 10888 10892 10894 10896 10900 10903 10906 10907 10908 10910 10913 10916 10918 10920 10922 10923 10925 10926 10927 10929 10930 10931 10932 10933 10934 10936 10938 10939
10421 10425 10429 10434 10440 10446 10454 10464 10474 10484 10493 10501 10511 10523 10535 10547 10559 10572 10587 10602 10614 10625 10638 10650 10660 10669 10678 10686 10694 10699 10705 10715 10731 10743 10751 10758 10765 10772 10781 10790 10799 10806 10813 10820 10826 10832 10835 10838 10842 10847 10853 10858 10863 10867 10870 10873 10876 10878 10882 10887 10890 10891 10894 10897 10900 10901 10902 10904 10908 10911 10913 10915 10917 10919 10920 10921 10922 10924 10924 10926 10927 10928 10929 10931 10932 10933
10418 10421 10426 10431 10436 10443 10450 10459 10468 10477 10486 10495 10506 10517 10529 10541 10553 10566 10581 10596 10608 10619 10630 10641 10651 10661 10670 10679 10687 10692 10698 10709 10725 10737 10744 10751 10758 10764 10773 10782 10790 10799 10807 10814 10820 10825 10829 10832 10837 10843 10849 10853 10857 10860 10864 10867 10870 10873 10878 10883 10884 10885 10888 10892 10894 10895 10896 10899 10902 10905 10908 10910 10912 10914 10915 10916 10917 10918 10919 10920 10922 10922 10924 10926 10927 10928
10416 10419 10423 10427 10434 10440 10447 10455 10462 10470 10480 10490 10501 10512 10524 10536 10548 10561 10577 10590 10601 10611 10621 10632 10643 10654 10663 10671 10678 10685 10692 10704 10720 10731 10737 10744 10751 10757 10765 10774 10782 10791 10800 10808 10814 10818 10822 10827 10832 10839 10844 10847 10850 10854 10857 10860 10864 10868 10873 10877 10878 10879 10883 10886 10887 10888 10890 10893 10897 10900 10903 10905 10907 10908 10910 10911 10912 10913 10914 10915 10916 10917 10918 10920 10921 10922
10413 10416 10420 10425 10431 10438 10445 10451 10458 10466 10476 10486 10495 10506 10518 10530 10541 10555 10570 10584 10594 10602 10613 10625 10637 10648 10658 10664 10670 10677 10687 10699 10713 10724 10731 10738 10744 10750 10757 10766 10775 10785 10793 10801 10807 10812 10816 10822 10828 10833 10837 10841 10845 10849 10851 10854 10858 10862 10866 10870 10871 10874 10877 10879 10880 10882 10885 10888 10892 10895 10897 10900 10901 10902 10904 10905 10906 10907 10908 10909 10911 10911 10913 10914 10915 10916
10411 10414 10418 10424 10430 10436 10441 10447 10454 10462 10472 10481 10491 10502 10513 10524 10535 10548 10563 10577 10586 10594 10606 10620 10632 10642 10651 10656 10662 10670 10681 10694 10707 10716 10724 10732 10738 10743 10750 10759 10769 10778 10786 10794 10800 10805 10811 10817 10823 10828 10833 10837 10840 10842 10845 10848 10852 10855 10859 10863 10866 10868 10870 10872 10874 10876 10879 10883 10886 10889 10892 10894 10895 10896 10897 10899 10900 10902 10903 10904 10905 10906 10907 10909 10910 10910
10410 10413 10416 10421 10428 10433 10438 10445 10452 10461 10469 10477 10486 10496 10506 10517 10529 10543 10556 10569 10578 10588 10600 10613 10625 10635 10643 10649 10654 10663 10675 10688 10699 10708 10718 10726 10732 10737 10744 10753 10762 10771 10780 10787 10793 10800 10806 10812 10817 10822 10827 10831 10834 10837 10840 10843 10847 10850 10854 10857 10860 10862 10864 10866 10868 10871 10874 10878 10881 10884 10886 10887 10889 10890 10892 10893 10895 10896 10896 10898 10899 10900 10902 10904 10904 10904
10408 10411 10414 10419 10425 10430 10436 10443 10451 10459 10468 10475 10483 10492 10502 10513 10524 10537 10549 10561 10571 10581 10592 10604 10617 10628 10636 10642 10648 10657 10670 10682 10693 10702 10711 10719 10725 10731 10738 10748 10757 10766 10773 10780 10788 10796 10802 10807 10812 10816 10820 10823 10828 10832 10835 10838 10841 10844 10848 10852 10854 10856 10858 10860 10862 10865 10869 10872 10875 10878 10880 10881 10883 10884 10886 10888 10889 10890 10891 10892 10894 10895 10897 10898 10898 10899